Simultaneous Nadir Overpasses (SNOs) Predictions

Prediction of SNOs between GOES-14 and NOAA-20 Satellite Orbit:

Table of predicted SNOs for the next 14.0 days since TLE Epoch: 12/28/2018
Index Date Time (GOES-14) GOES-14 Lat,Lon NOAA-20 Lat,Lon Distance(km) Time Diff (sec)
1 12/29/2018 08:32:33 -0.03,-104.27 0.47,-106.53 257.28 80
2 12/30/2018 08:11:08 -0.02,-104.27 -0.50,-101.99 259.12 80
3 12/31/2018 20:33:05 0.03,-104.05 -0.70,-107.29 369.57 80
4 01/01/2019 20:17:02 0.02,-104.06 0.33,-102.77 147.72 80
5 01/03/2019 08:38:51 -0.03,-104.30 0.82,-108.05 427.14 80
6 01/04/2019 08:17:28 -0.02,-104.30 -0.22,-103.52 89.44 80
7 01/06/2019 20:20:41 0.02,-104.08 -0.01,-104.29 23.23 80
8 01/07/2019 20:04:36 0.01,-104.09 0.97, -99.75 494.14 80
9 01/09/2019 08:26:26 -0.02,-104.33 0.12,-105.04 80.12 80
10 01/10/2019 08:05:02 -0.01,-104.34 -0.86,-100.50 436.58 80




NCC Satellite Simultaneous Nadir Overpasses (SNOs) Prediction Service
